Regional Weather Roundup
Issued by NWS

Home | Current Version | Previous Version | Text Only | Print | Product List | Glossary Off
Versions: 1 2 3 4 5 6 7 8 9 10 11 12 13 14 15 16 17 18 19 20 21 22 23 24 25 26 27 28 29 30 31 32 33 34 35 36 37 38 39 40 41 42 43 44 45 46 47 48 49 50

000
ASUS43 KLSX 020407
RWRMO

WEATHER SUMMARY FOR MISSOURI
NATIONAL WEATHER SERVICE SPRINGFIELD MO
1100 PM CDT FRI AUG 01 2014

NOTE: "FAIR" INDICATES FEW OR NO CLOUDS BELOW 12,000 FEET WITH NO
       SIGNIFICANT WEATHER AND/OR OBSTRUCTIONS TO VISIBILITY.
       CURRENT SKY AND/OR WEATHER CONDITIONS ARE NOT AVAILABLE FOR
       CHILLICOTHE AND FARMINGTON.

MOZ001>031-035>038-043-044-053-054-020500-
...NORTHERN AND WESTERN MISSOURI...

CITY           SKY/WX    TMP DP  RH WIND       PRES   REMARKS
KANSAS CTY INT CLEAR     75  63  66 E8        30.09R
KANSAS C DTWN  CLEAR     76  63  64 E8        30.07R
LEE`S SUMMIT   CLEAR     71  62  73 E5        30.09R
ST JOSEPH      CLEAR     67  63  87 N3        30.08R
CHILLICOTHE      N/A     65  61  87 CALM      30.10R
KIRKSVILLE     CLEAR     65  61  87 E3        30.12R

$$
MOZ066>068-077>081-088>096-101>105-020500-
...SOUTHWEST MISSOURI...

CITY           SKY/WX    TMP DP  RH WIND       PRES   REMARKS
SPRINGFIELD    MOCLDY    72  64  76 NE9       30.09R
JOPLIN         CLEAR     68  64  87 SE3       30.08R

$$
MOZ032>034-039>042-045>050-055>058-069>072-020500-
...CENTRAL MISSOURI...

CITY           SKY/WX    TMP DP  RH WIND       PRES   REMARKS
COLUMBIA       CLEAR     66  61  84 E6        30.11R
JEFFERSON CITY CLEAR     67  63  87 E3        30.09R
ROLLA          MOCLDY    67  60  78 E5        30.10R
SEDALIA        CLEAR     71  60  68 NE3       30.10R
WHITEMAN AFB   CLEAR     69  53  57 CALM      30.08R
OSAGE BEACH      N/A     70  59  68 CALM      30.10R

$$
MOZ051-052-059>065-020500-
...EAST CENTRAL MISSOURI...

CITY           SKY/WX    TMP DP  RH WIND       PRES   REMARKS
ST LOUIS INTL  MOCLDY    72  61  68 SW3       30.10R
SPIRIT OF STL  MOCLDY    69  65  86 CALM      30.09S
ST CHARLES     PTCLDY    66  63  90 CALM      30.09S

$$
MOZ072>076-082>087-097>100-106>115-020500-
...SOUTH CENTRAL AND SOUTHEAST MISSOURI...

CITY           SKY/WX    TMP DP  RH WIND       PRES   REMARKS
CAPE GIRARDEAU MOCLDY    74  65  73 NE6       30.06S
FARMINGTON     CLOUDY    68  61  77 E3        30.13R
POPLAR BLUFF   PTCLDY    68  65  90 CALM      30.05R
WEST PLAINS    CLEAR     66  63  90 CALM      30.10R

$$



USA.gov is the U.S. government's official web portal to all federal, state and local government web resources and services.